Location: G�migny
(47.9646°N, 1.6950°E)
Time: 20:25:51
(UTC+00:00)

Cosmos 1328 - Pass Details

Date: 23 October 2019
Orbit: 531 x 553 km, 82.5° (Epoch: 18 November)

Event Time Altitude Azimuth Distance (km) Brightness Sun altitude
Rises 17:22:46 0° 351° (N) 2,709 7.4 -6.1°
Reaches altitude 10° 17:24:57 10° 352° (N) 1,809 6.5 -6.4°
Maximum altitude 17:28:55 83° 79° (E) 547 3.7 -7.1°
Drops below altitude 10° 17:32:51 10° 169° (S) 1,783 6.4 -7.7°
Sets 17:34:58 0° 170° (S) 2,666 7.3 -8.1°
